This is the latest recevied weather packets stored in our database for station/object YO8RBY-2. If no packets are shown the sender has not sent any weather packets the latest 10 day(s).
| Time | Temp. | Humidity | Pressure | Rain* | Wind** | Luminosity | Snow |
|---|---|---|---|---|---|---|---|
| 1788014225 | 39.44° C | 19% | 974 hPa | - | - | 0 W/m² | - |
| 1788012401 | 37.78° C | 20% | 974 hPa | - | - | 0 W/m² | - |
| 1788010576 | 36.67° C | 22% | 974 hPa | - | - | 0 W/m² | - |
| 1788008752 | 35.56° C | 22% | 974 hPa | - | - | 0 W/m² | - |
| 1788006927 | 35° C | 23% | 974 hPa | - | - | 0 W/m² | - |
| 1788005103 | 33.89° C | 24% | 975 hPa | - | - | 0 W/m² | - |
| 1788003278 | 32.78° C | 26% | 975 hPa | - | - | 0 W/m² | - |
| 1788001453 | 32.22° C | 27% | 976 hPa | - | - | 0 W/m² | - |
| 1787999628 | 31.11° C | 28% | 976 hPa | - | - | 0 W/m² | - |
| 1787997803 | 30° C | 29% | 976 hPa | - | - | 0 W/m² | - |
| 1787995978 | 28.89° C | 31% | 977 hPa | - | - | 0 W/m² | - |
| 1787994153 | 27.78° C | 34% | 977 hPa | - | - | 0 W/m² | - |
| 1787992328 | 27.22° C | 37% | 977 hPa | - | - | 0 W/m² | - |
| 1787990503 | 26.11° C | 39% | 978 hPa | - | - | 0 W/m² | - |
| 1787988679 | 25° C | 41% | 978 hPa | - | - | 0 W/m² | - |
| 1787986855 | 23.89° C | 43% | 978 hPa | - | - | 0 W/m² | - |
| 1787985031 | 23.33° C | 45% | 978 hPa | - | - | 0 W/m² | - |
| 1787983207 | 21.67° C | 48% | 978 hPa | - | - | 0 W/m² | - |
| 1787981383 | 20° C | 53% | 978 hPa | - | - | 0 W/m² | - |
| 1787979559 | 17.78° C | 56% | 978 hPa | - | - | 0 W/m² | - |
| 1787894912 | 19.44° C | 65% | 979 hPa | - | - | 0 W/m² | - |
| 1787893088 | 19.44° C | 65% | 979 hPa | - | - | 0 W/m² | - |
| 1787891264 | 19.44° C | 65% | 979 hPa | - | - | 0 W/m² | - |
| 1787889439 | 19.44° C | 65% | 979 hPa | - | - | 0 W/m² | - |
| 1787887615 | 19.44° C | 65% | 979 hPa | - | - | 0 W/m² | - |
* Rain since midnight (hover to see other rain measurements)
** Current wind speed in m/s (hover to see current wind gust speed)